Weather History for MROC - December, 2010

Change the Weather History Date:

Friday, December 10, 2010

  Actual Average Record
Temperature  
Mean Temperature 70 °F -  
Max Temperature 77 °F 79 °F 87 °F (1997)
Min Temperature 63 °F 64 °F 59 °F (2013)
Cooling Degree Days 5    
Growing Degree Days 20 (Base 50)    
Moisture  
Dew Point 60 °F    
Average Humidity 69    
Maximum Humidity 88    
Minimum Humidity 52    
Precipitation  
Precipitation 0.00 in 0.03 in - ()
Sea Level Pressure  
Sea Level Pressure 29.98 in    
Wind  
Wind Speed 10 mph ()    
Max Wind Speed 17 mph    
Max Gust Speed 32 mph    
Visibility 7.2 miles    
Events      
Averages and records for this station are not official NWS values.
T = Trace of Precipitation, MM = Missing Value Source: Averaged Metar Reports

Daily Weather History Graph

Daily Weather History Graph

Search for Another Location

Airport or City:

Trip Planner

Search our weather history database for the weather conditions in past years. The results will help you decide how hot, cold, wet, or windy it might be!

Date:

Astronomy

Dec. 10, 2010 Rise Set
Actual Time 5:43 AM CST 5:16 PM CST
Civil Twilight 5:20 AM CST 5:39 PM CST
Nautical Twilight 4:53 AM CST 6:05 PM CST
Astronomical Twilight 4:27 AM CST 6:31 PM CST
Moon 9:40 AM CST (12/10) 9:44 PM CST (12/10)
Length of Visible Light 12h 18m
Length of Day
11h 33m
Waxing Crescent, 24% of the Moon is Illuminated
Dec 10
Waxing Crescent
Dec 13
First Quarter
Dec 21
Full
Dec 27
Last Quarter
Jan 4
New

Hourly Weather History & Observations

Time (CST) Temp. Dew Point Humidity Pressure Visibility Wind Dir Wind Speed Gust Speed Precip Events Conditions
12:00 AM 66.2 °F 60.8 °F 83% 30.02 in 6.2 mi East 5.8 mph - N/A   Partly Cloudy
1:00 AM 66.2 °F 55.4 °F 68% 30.01 in 6.2 mi ESE 11.5 mph - N/A   Partly Cloudy
2:00 AM 64.4 °F 55.4 °F 73% 30.00 in 6.2 mi East 11.5 mph 32.2 mph N/A   Partly Cloudy
4:00 AM 64.4 °F 57.2 °F 77% 29.98 in 6.2 mi ESE 15.0 mph - N/A   Partly Cloudy
5:00 AM 64.4 °F 57.2 °F 77% 29.99 in 6.2 mi ESE 11.5 mph 25.3 mph N/A   Partly Cloudy
6:00 AM 66.2 °F 57.2 °F 73% 30.00 in 6.2 mi ESE 11.5 mph - N/A   Scattered Clouds
7:00 AM 68.0 °F 59.0 °F 73% 30.03 in 6.2 mi ESE 13.8 mph 25.3 mph N/A   Scattered Clouds
8:00 AM 69.8 °F 59.0 °F 68% 30.04 in 6.2 mi SE 16.1 mph 27.6 mph N/A   Partly Cloudy
9:00 AM 72 °F 59 °F 55% 29.88 in 12 mi ESE 16.1 mph - -   Scattered Clouds
9:00 AM 71.6 °F 59.0 °F 64% 30.04 in 6.2 mi SE 16.1 mph 28.8 mph N/A   Partly Cloudy
10:00 AM 73.4 °F 59.0 °F 61% 30.04 in 6.2 mi SE 17.3 mph - N/A   Partly Cloudy
11:00 AM 75.2 °F 60.8 °F 61% 30.02 in 6.2 mi ESE 16.1 mph - N/A   Partly Cloudy
12:00 PM 75 °F 61 °F 52% 29.85 in 12 mi SE 13.8 mph - -   Scattered Clouds
12:00 PM 75.2 °F 60.8 °F 61% 29.99 in 6.2 mi SE 13.8 mph - N/A   Partly Cloudy
1:00 PM 77.0 °F 60.8 °F 57% 29.97 in 6.2 mi SE 13.8 mph 25.3 mph N/A   Partly Cloudy
2:00 PM 75.2 °F 60.8 °F 61% 29.96 in 6.2 mi SE 16.1 mph 27.6 mph N/A   Scattered Clouds
3:00 PM 75 °F 61 °F 52% 29.82 in 12 mi SE 10.4 mph - -   Partly Cloudy
3:00 PM 75.2 °F 60.8 °F 61% 29.96 in 6.2 mi SE 10.4 mph - N/A   Scattered Clouds
4:00 PM 73.4 °F 60.8 °F 65% 29.96 in 6.2 mi ESE 10.4 mph - N/A   Scattered Clouds
4:46 PM 71.6 °F 59.0 °F 64% 29.97 in 6.2 mi West 3.5 mph 19.6 mph N/A   Scattered Clouds
5:00 PM 71.6 °F 59.0 °F 64% 29.98 in 6.2 mi Variable 2.3 mph - N/A   Scattered Clouds
5:10 PM 69.8 °F 60.8 °F 73% 29.98 in 6.2 mi WSW 11.5 mph - N/A   Scattered Clouds
6:00 PM 68 °F 59 °F 65% 29.83 in 12 mi East 4.6 mph - -   Partly Cloudy
6:00 PM 68.0 °F 59.0 °F 73% 29.99 in 6.2 mi NNE 5.8 mph - N/A   Scattered Clouds
7:00 PM 68.0 °F 60.8 °F 78% 30.02 in 6.2 mi ENE 5.8 mph - N/A   Partly Cloudy
8:00 PM 66.2 °F 60.8 °F 83% 30.04 in - East 8.1 mph - N/A   Clear
9:00 PM 66 °F 61 °F 78% 29.89 in 12 mi ESE 5.8 mph - -   Scattered Clouds
9:00 PM 66.2 °F 60.8 °F 83% 30.05 in - ESE 5.8 mph - N/A   Clear
10:00 PM 68.0 °F 60.8 °F 78% 30.04 in 6.2 mi East 11.5 mph 23.0 mph N/A   Unknown
11:00 PM 64.4 °F 60.8 °F 88% 30.02 in 6.2 mi NE 5.8 mph - N/A   Unknown